Location: Utrecht
(52.0907°N, 5.1214°E)
Time: 22:38:39
(UTC+02:00)

ESTCUBE 1 - Pass Details

Date: 04 July 2022
Orbit: 646 x 657 km, 97.9° (Epoch: 13 August)

Event Time Altitude Azimuth Distance (km) Brightness Sun altitude
Exits shadow 23:18:51 11° 153° (SSE) 1,979 ? -8.7°
Maximum altitude 23:23:07 67° 72° (ENE) 705 ? -9.0°
Drops below altitude 10° 23:27:35 10° 350° (N) 2,067 ? -9.4°
Sets 23:29:49 0° 348° (NNW) 2,984 ? -9.6°
